This is the latest recevied weather packets stored in our database for station/object N8HON. If no packets are shown the sender has not sent any weather packets the latest 10 day(s).
| Time | Temp. | Humidity | Pressure | Rain* | Wind** | Luminosity | Snow |
|---|---|---|---|---|---|---|---|
| 1777555986 | 10.56° C | 71% | 1009.8 hPa | 0 mm | - | 110 W/m² | - |
| 1777555686 | 10.56° C | 70% | 1009.8 hPa | 0 mm | - | 90 W/m² | - |
| 1777555383 | 10.56° C | 72% | 1009.8 hPa | 0 mm | - | 88 W/m² | - |
| 1777555079 | 10.56° C | 70% | 1009.5 hPa | 0 mm | - | 95 W/m² | - |
| 1777554777 | 10.56° C | 71% | 1009.7 hPa | 0 mm | - | 101 W/m² | - |
| 1777554474 | 10.56° C | 72% | 1009.5 hPa | 0 mm | - | 104 W/m² | - |
| 1777554170 | 10.56° C | 71% | 1009.5 hPa | 0 mm | - | 96 W/m² | - |
| 1777553867 | 10° C | 71% | 1009.5 hPa | 0 mm | - | 90 W/m² | - |
| 1777553563 | 10° C | 73% | 1009.6 hPa | 0 mm | - | 81 W/m² | - |
| 1777553259 | 10° C | 73% | 1009.3 hPa | 0 mm | - | 73 W/m² | - |
| 1777552955 | 10° C | 72% | 1009.3 hPa | 0 mm | - | 65 W/m² | - |
| 1777552650 | 10° C | 72% | 1009.2 hPa | 0 mm | - | 43 W/m² | - |
| 1777552348 | 10.56° C | 71% | 1009 hPa | 0 mm | - | 35 W/m² | - |
| 1777552044 | 10.56° C | 69% | 1009 hPa | 0 mm | - | 45 W/m² | - |
| 1777551741 | 10.56° C | 70% | 1009.1 hPa | 0 mm | - | 45 W/m² | - |
| 1777551438 | 10.56° C | 68% | 1008.9 hPa | 0 mm | - | 39 W/m² | - |
| 1777551135 | 10.56° C | 71% | 1008.9 hPa | 0 mm | - | 42 W/m² | - |
| 1777550833 | 10.56° C | 71% | 1008.6 hPa | 0 mm | - | 60 W/m² | - |
| 1777550529 | 10.56° C | 69% | 1008.6 hPa | 0 mm | - | 54 W/m² | - |
| 1777550225 | 10° C | 74% | 1008.4 hPa | 0 mm | - | 56 W/m² | - |
| 1777549921 | 10.56° C | 74% | 1008.5 hPa | 0 mm | - | 45 W/m² | - |
| 1777549617 | 10.56° C | 73% | 1008.5 hPa | 0 mm | - | 40 W/m² | - |
| 1777549313 | 10° C | 72% | 1008.5 hPa | 0 mm | - | 34 W/m² | - |
| 1777549011 | 10° C | 75% | 1008.6 hPa | 0 mm | - | 29 W/m² | - |
| 1777548706 | 10° C | 75% | 1008.3 hPa | 0 mm | - | 26 W/m² | - |
* Rain latest hour (hover to see other rain measurements)
** Current wind speed in m/s (hover to see current wind gust speed)